Tracking 28790 objects as of 19-Apr-2024
HD Live streaming from Space Station
objects crossing your sky now

CZ-6A DEB

Track CZ-6A DEB now!
10-day predictions


NORAD ID: 56267
Int'l Code: 2022-151ACK
Perigee: 656.8 km
Apogee: 815.2 km
Inclination: 98.7 °
Period: 99.4 minutes
Semi major axis: 7107 km
RCS: Unknown
Launch date: November 11, 2022
Source: People's Republic of China (PRC)
Launch site: Taiyaun Space Center, China (TSC)

Note: This is SATELLITE DEBRIS
Your satellite tracking list
Your tracking list is empty




NASA's NSSDC Master Catalog

Two Line Element Set (TLE):
1 56267U 22151ACK 24109.57816179  .00019977  00000-0  48660-2 0  9996
2 56267  98.6758 134.5396 0111446 175.3548 184.8706 14.49011241 63002
Source of the keplerian elements: AFSPC